Terug naar catalogus

SUPERVIEW NEO-3 01

ActiefWetenschapSSO
NORAD 59510·PAYLOAD·🇨🇳 China

Gelanceerd Apr 15, 2024 vanaf Jiuquan Satellite Launch Center

Loading…

Volgende Passages (komende 24 uur)

TLE

VersSource: Space-Track

Epoch: Sep 14, 2026, 15:38 UTC

1 59510U 24072A   26257.65206619  .00006301  00000-0  27903-3 0  9996
2 59510  97.4082 336.4484 0002519 124.1448 236.0028 15.21993241134315

Volg SUPERVIEW NEO-3 01 in realtime met AllMySat

Download on the App Store